Terminal Aerodrome Forecast
Issued by NWS Portland, OR

Home | Current Version | Previous Version | Text Only | Print | Product List | Glossary On
Versions: 1 2 3 4 5 6 7 8 9 10 11 12 13 14 15 16 17 18 19 20 21 22 23 24 25 26 27 28 29 30 31 32 33 34 35 36 37 38 39 40 41 42 43 44 45 46 47 48 49 50
000
FTUS46 KPQR 281738
TAFPDX
TAF
KPDX 281738Z 2818/2918 24007KT P6SM -SHRA SCT025 BKN045 BKN060
     FM290400 22005KT P6SM -SHRA BKN025 OVC045
     FM291200 02006KT P6SM -SHRASN BKN025 OVC040
     FM291600 10010KT P6SM SCT025 BKN050=

USA.gov is the U.S. government's official web portal to all federal, state and local government web resources and services.